SM7SJR-13 Weather Reports


Display with metric or nautical units.
time (UTC)temp
F
wind
direction
speed
MPH
gust
MPH
rain 1hr
in
rain 24hr
in
rain mn
in
humidity
%
barometer
mb
20260902220003 58 225 5.0 9.0 0.00 0.00 0.00 93 1010.5
20260902214504 58 233 5.0 8.0 0.00 0.00 0.00 93 1010.3
20260902213004 59 212 4.0 10.0 0.00 0.00 0.00 94 1010.3
20260902210004 59 223 5.0 9.0 0.00 0.00 0.00 94 1010.1
20260902204503 59 227 5.0 9.0 0.00 0.00 0.00 93 1010.1
20260902203004 60 229 5.0 9.0 0.00 0.00 0.00 93 1010.1
20260902201504 60 219 6.0 10.0 0.00 0.00 0.00 93 1010.0
20260902200005 61 214 7.0 12.0 0.00 0.00 0.00 92 1010.0
20260902194505 61 219 6.0 12.0 0.00 0.00 0.00 92 1010.0
20260902193005 61 216 7.0 10.0 0.00 0.00 0.00 91 1010.0
20260902191504 61 217 5.0 9.0 0.00 0.00 0.00 90 1010.0
20260902190003 62 228 6.0 10.0 0.00 0.00 0.00 89 1010.0
20260902184503 62 219 7.0 13.0 0.00 0.00 0.00 89 1010.0
20260902183003 62 225 6.0 12.0 0.00 0.00 0.00 89 1009.8
20260902181503 62 226 6.0 12.0 0.00 0.00 0.00 88 1009.8
20260902174504 63 214 7.0 12.0 0.00 0.00 0.00 87 1009.8
20260902173004 63 208 5.0 12.0 0.00 0.00 0.00 86 1009.9
20260902171504 64 230 6.0 12.0 0.00 0.00 0.00 85 1010.1
20260902170004 64 214 3.0 12.0 0.00 0.00 0.00 84 1010.1
20260902163004 66 232 7.0 13.0 0.00 0.00 0.00 81 1010.1
20260902161504 66 222 11.0 17.0 0.00 0.00 0.00 80 1010.1
20260902160007 67 234 7.0 16.0 0.00 0.00 0.00 79 1010.1
20260902154504 68 246 8.0 18.0 0.00 0.00 0.00 75 1010.0
20260902153003 69 241 10.0 15.0 0.00 0.00 0.00 73 1009.9
20260902151505 70 241 12.0 23.0 0.00 0.00 0.00 69 1010.1
20260902150003 69 233 7.0 20.0 0.00 0.00 0.00 74 1010.1
20260902144504 68 236 10.0 24.0 0.00 0.00 0.00 71 1010.1
20260902141503 73 251 12.0 20.0 0.00 0.00 0.00 64 1010.0
20260902140004 72 226 10.0 25.0 0.00 0.00 0.00 66 1010.0
20260902134504 72 240 13.0 21.0 0.00 0.00 0.00 64 1010.0
20260902131504 74 217 13.0 21.0 0.00 0.00 0.00 62 1010.0
20260902124504 72 227 6.0 15.0 0.00 0.00 0.00 65 1010.0
20260902114503 72 236 11.0 20.0 0.00 0.00 0.00 66 1010.6
20260902113004 71 239 12.0 20.0 0.00 0.00 0.00 68 1010.6
20260902111504 70 241 10.0 21.0 0.00 0.00 0.00 69 1010.8
20260902110005 69 228 10.0 14.0 0.00 0.00 0.00 73 1010.9
20260902104504 69 248 8.0 14.0 0.00 0.00 0.00 72 1010.9
20260902103003 66 249 7.0 13.0 0.00 0.00 0.00 79 1011.2
20260902101503 66 244 9.0 17.0 0.00 0.00 0.00 78 1011.1
20260902100004 66 250 6.0 16.0 0.00 0.00 0.00 79 1011.1
20260902093004 66 241 5.0 16.0 0.00 0.00 0.00 79 1011.3
20260902091504 65 241 10.0 18.0 0.00 0.00 0.00 79 1011.3
20260902090005 66 240 13.0 17.0 0.00 0.00 0.00 78 1011.1
20260902084504 66 246 7.0 16.0 0.00 0.00 0.00 77 1011.1
20260902083005 65 240 7.0 13.0 0.00 0.00 0.00 80 1011.2
20260902081504 65 241 5.0 17.0 0.00 0.00 0.00 79 1011.2
20260902074504 64 241 9.0 15.0 0.00 0.00 0.00 80 1011.2
20260902073003 64 226 4.0 12.0 0.00 0.00 0.00 81 1010.9
20260902070006 62 256 5.0 12.0 0.00 0.00 0.00 83 1010.9
20260902064504 62 251 3.0 12.0 0.00 0.00 0.00 85 1010.8
20260902063004 60 245 6.0 12.0 0.00 0.00 0.00 88 1010.8
20260902060004 57 238 3.0 7.0 0.00 0.00 0.00 94 1010.8
20260902054503 57 240 3.0 8.0 0.00 0.00 0.00 95 1010.8
20260902053005 56 242 4.0 9.0 0.00 0.00 0.00 96 1010.4
20260902051503 55 254 5.0 9.0 0.00 0.00 0.00 97 1010.4
20260902050006 54 267 5.0 9.0 0.00 0.00 0.00 96 1010.4
20260902044504 54 249 4.0 7.0 0.00 0.00 0.00 96 1010.4
20260902043004 54 248 5.0 8.0 0.00 0.00 0.00 96 1010.3
20260902041504 54 244 6.0 7.0 0.00 0.00 0.00 97 1010.3
20260902040004 54 238 2.0 3.0 0.00 0.00 0.00 96 1010.2
20260902034504 54 234 3.0 7.0 0.00 0.00 0.00 96 1010.1
20260902033004 54 238 5.0 7.0 0.00 0.00 0.00 96 1010.2
20260902031503 54 231 4.0 8.0 0.00 0.00 0.00 96 1010.0
20260902023004 54 241 5.0 8.0 0.00 0.00 0.00 95 1010.0
20260902021503 54 245 5.0 7.0 0.00 0.00 0.00 95 1010.0
20260902014503 55 246 5.0 8.0 0.00 0.00 0.00 95 1010.1
20260902010004 56 261 4.0 8.0 0.00 0.00 0.00 95 1009.9
20260902004504 56 244 6.0 8.0 0.00 0.00 0.00 94 1009.9
20260902003004 56 248 4.0 7.0 0.00 0.00 0.00 94 1009.9
20260901234504 57 252 3.0 9.0 0.00 0.00 0.00 93 1009.9
20260901233003 57 257 5.0 8.0 0.00 0.00 0.00 93 1009.8
20260901231503 58 254 5.0 8.0 0.00 0.00 0.00 93 1009.8
20260901230004 58 249 5.0 9.0 0.00 0.00 0.00 93 1009.7
20260901223004 59 247 5.0 7.0 0.00 0.00 0.00 91 1009.8